This demonstration page uses our WeatherBlox Daily Observations layout. Learn more.

Left ArrowRight Arrow

39.92423, -83.80882

Hourly Observations for June 15, 2015

Temp ( °F °C ) Dew Point ( °F °C ) Humidity (%) Winds ( mph kmh ) Pressure ( in mb ) Visibility ( mi km ) Precip ( " mm )
12:27 am 00:27 Mostly Clear with Nearby Thunderstorms 73 23 73 23 100 100 Calm 30.03 1017 6 9.65604 0 0
12:40 am 00:40 Mostly Cloudy with Nearby Thunderstorms 73 23 73 23 100 100 WSW 12 19 30.03 1017 2 3.21868 0.09 2.286
12:44 am 00:44 Mostly Cloudy with Mist and Fog 73 23 73 23 100 100 W 12 19 30.03 1017 1.25 2.011675 0.16 4.064
12:47 am 00:47 Mostly Cloudy with Light Rain 73 23 73 23 100 100 SW 10 17 30.03 1017 1.5 2.41401 0.17 4.318
12:56 am 00:56 Partly Cloudy 74 23.3 73 22.7 96 96 SW 7 11 30.02 1017 7 11.26538 0.17 4.318
1:16 am 01:16 Mostly Cloudy with Rain 73 23 73 23 100 100 W 21 33 30.03 1017 1.75 2.816345 0.09 2.286
1:28 am 01:28 Mostly Cloudy with Light Rain 73 23 72 22 94 94 W 13 20 30.03 1017 3 4.82802 0.13 3.302
1:56 am 01:56 Clear 72 22.2 69 20.5 90 90 W 10 17 30.03 1017 9 14.48406 0.13 3.302
2:56 am 02:56 Mostly Cloudy 71 21.6 70 21.1 97 97 WSW 6 9 30.04 1017 9 14.48406 0 0
3:56 am 03:56 Mostly Clear 71 21.6 71 21.6 100 100 WSW 5 7 30.02 1017 8 12.87472 0 0
4:56 am 04:56 Mostly Cloudy with Mist and Fog 72 22.2 72 22.2 100 100 SW 9 15 30.02 1017 6 9.65604 0 0.0254
5:31 am 05:31 Mostly Cloudy with Heavy Rain 73 23 72 22 94 94 WSW 17 28 30.03 1017 2.5 4.02335 0.08 2.032
5:34 am 05:34 Mostly Cloudy with Heavy Rain 73 23 72 22 94 94 WSW 16 26 30.03 1017 1.25 2.011675 0.18 4.572
5:45 am 05:45 Cloudy with Light Rain 73 23 72 22 94 94 W 9 15 30.03 1017 2 3.21868 0.27 6.858
5:56 am 05:56 Cloudy with Light Rain 72 22.2 72 22.2 100 100 W 6 9 30.03 1017 6 9.65604 0.27 6.858
6:56 am 06:56 Sunny with Mist and Fog 72 22.2 72 22.2 100 100 SSW 8 13 30.04 1017 6 9.65604 0.01 0.254
7:36 am 07:36 Mostly Cloudy with Light Rain 73 23 73 23 100 100 WSW 12 19 30.06 1018 2 3.21868 0.03 0.762
7:38 am 07:38 Mostly Cloudy with Rain 73 23 73 23 100 100 WSW 13 20 30.06 1018 1.25 2.011675 0.03 0.762
7:56 am 07:56 Cloudy with Nearby Thunderstorms 72 22.2 72 22.2 100 100 WSW 13 20 30.06 1018 1.5 2.41401 0.1 2.54
8:10 am 08:10 Cloudy with Light Rain 72 22 72 22 100 100 WSW 10 17 30.06 1018 2 3.21868 0.04 1.016
8:32 am 08:32 Mostly Cloudy with Rain 72 22 72 22 100 100 W 12 19 30.06 1018 4 6.43736 0.08 2.032
8:43 am 08:43 Cloudy with Light Rain 72 22 72 22 100 100 W 9 15 30.06 1018 2.5 4.02335 0.1 2.54
8:56 am 08:56 Cloudy with Light Rain 72 22.2 72 22.2 100 100 WSW 8 13 30.07 1018 2.5 4.02335 0.14 3.556
9:03 am 09:03 Cloudy with Light Rain 73 23 73 23 100 100 WSW 9 15 30.06 1018 5 8.0467 0 0.0254
9:11 am 09:11 Cloudy 73 23 73 23 100 100 WSW 8 13 30.06 1018 7 11.26538 0 0.0254
9:23 am 09:23 Mostly Cloudy 73 23 73 23 100 100 WSW 9 15 30.06 1018 8 12.87472 0 0.0254
9:32 am 09:32 Mostly Cloudy 73 23 73 23 100 100 WSW 9 15 30.06 1018 7 11.26538 0 0.0254
9:56 am 09:56 Mostly Cloudy 75 23.8 74 23.3 97 97 WSW 8 13 30.06 1018 8 12.87472 0 0.0254
10:56 am 10:56 Cloudy with Light Rain 75 23.8 74 23.3 97 97 WSW 12 19 30.07 1018 3 4.82802 0 0.0254
11:12 am 11:12 Cloudy with Light Rain 75 24 73 23 94 94 WSW 14 22 30.06 1018 3 4.82802 0.01 0.254
11:25 am 11:25 Mostly Cloudy with Light Rain 75 24 73 23 94 94 WSW 13 20 30.06 1018 6 9.65604 0.01 0.254
11:32 am 11:32 Mostly Cloudy with Light Rain 73 23 73 23 100 100 WSW 10 17 30.06 1018 2.5 4.02335 0.03 0.762
11:47 am 11:47 Mostly Cloudy with Light Rain 73 23 73 23 100 100 W 12 19 30.09 1019 6 9.65604 0.03 0.762
11:56 am 11:56 Cloudy with Heavy Rain 74 23.3 74 23.3 100 100 WSW 10 17 30.08 1019 1.5 2.41401 0.08 2.032
12:02 pm 12:02 Cloudy with Light Rain 73 23 73 23 100 100 W 10 17 30.06 1018 1.5 2.41401 0.01 0.254
12:08 pm 12:08 Mostly Cloudy with Light Rain 73 23 73 23 100 100 W 9 15 30.06 1018 3 4.82802 0.02 0.508
12:56 pm 12:56 Sunny 80 26.6 76 24.4 88 88 W 12 19 30.04 1017 8 12.87472 0.02 0.508
1:56 pm 13:56 Mostly Sunny 83 28.3 75 23.8 77 77 W 12 19 30.03 1017 8 12.87472 0 0
2:56 pm 14:56 Partly Cloudy 85 29.4 75 23.8 72 72 W 8 13 30.01 1016 8 12.87472 0 0
3:56 pm 15:56 Partly Cloudy 85 29.4 76 24.4 75 75 SW 8 13 29.99 1016 8 12.87472 0 0
4:15 pm 16:15 Partly Cloudy with Nearby Thunderstorms 88 31 73 23 62 62 WSW 14 22 29.94 1014 9 14.48406 0 0
4:32 pm 16:32 Partly Cloudy 88 31 73 23 62 62 SW 14 22 29.94 1014 8 12.87472 0 0
4:41 pm 16:41 Mostly Cloudy with Nearby Thunderstorms 88 31 73 23 62 62 SW 13 20 29.94 1014 8 12.87472 0 0
4:56 pm 16:56 Partly Cloudy 87 30.5 74 23.3 65 65 SW 13 20 29.97 1015 9 14.48406 0 0
5:56 pm 17:56 Mostly Cloudy 85 29.4 73 22.7 67 67 SW 10 17 29.96 1015 8 12.87472 0 0
6:56 pm 18:56 Partly Cloudy with Nearby Thunderstorms 80 26.6 74 23.3 82 82 SSW 3 6 29.96 1014 8 12.87472 0 0.0254
7:15 pm 19:15 Mostly Cloudy 81 27 75 24 84 84 Calm 29.94 1014 8 12.87472 0 0
7:56 pm 19:56 Mostly Sunny 82 27.7 76 24.4 82 82 SW 3 6 29.96 1014 8 12.87472 0 0
8:56 pm 20:56 Sunny 80 26.6 75 23.8 85 85 Calm 29.96 1015 8 12.87472 0 0
9:56 pm 21:56 Mostly Cloudy 78 25.5 74 23.3 88 88 SSW 5 7 29.97 1015 9 14.48406 0 0
10:56 pm 22:56 Clear 77 25 73 22.7 87 87 SSW 6 9 29.99 1016 9 14.48406 0 0
11:56 pm 23:56 Mostly Cloudy 77 25 72 22.2 85 85 SW 6 9 29.99 1016 9 14.48406 0 0

Powered by AerisWeather